EW4462 Weather Reports


Display with metric or nautical units.
time (UTC)temp
F
wind
direction
speed
MPH
gust
MPH
rain 1hr
in
rain 24hr
in
rain mn
in
humidity
%
barometer
mb
20260903230317 78 103 0.0 0.0 0.00 0.00 0.00 68 1013.3
20260903225308 78 118 0.0 1.0 0.00 0.00 0.00 67 1013.4
20260903223150 78 86 0.0 0.0 0.00 0.00 0.00 67 1013.5
20260903222205 79 112 0.0 5.0 0.00 0.00 0.00 67 1013.5
20260903221154 79 108 0.0 0.0 0.00 0.00 0.00 67 1013.6
20260903220149 78 81 0.0 0.0 0.00 0.00 0.00 68 1013.7
20260903215123 78 113 0.0 0.0 0.00 0.00 0.00 68 1013.8
20260903214135 78 105 0.0 0.0 0.00 0.00 0.00 69 1013.8
20260903213118 78 113 0.0 0.0 0.00 0.00 0.00 69 1013.8
20260903212138 78 74 0.0 0.0 0.00 0.00 0.00 70 1013.9
20260903211120 78 115 0.0 0.0 0.00 0.00 0.00 69 1013.9
20260903210111 78 102 0.0 5.0 0.00 0.00 0.00 68 1013.8
20260903205115 78 114 0.0 0.0 0.00 0.00 0.00 69 1013.8
20260903202916 79 93 0.0 0.0 0.00 0.00 0.00 67 1013.9
20260903195701 78 80 0.0 0.0 0.00 0.00 0.00 70 1013.9
20260903194722 77 118 0.0 0.0 0.00 0.00 0.00 71 1014.1
20260903192537 78 108 0.0 1.0 0.00 0.00 0.00 68 1014.4
20260903190431 77 92 0.0 0.0 0.00 0.00 0.00 69 1014.6
20260903185406 77 115 0.0 0.0 0.00 0.00 0.00 68 1014.8
20260903184337 78 148 0.0 0.0 0.00 0.00 0.00 67 1015.0
20260903183324 77 135 0.0 0.0 0.00 0.00 0.00 67 1015.1
20260903182327 77 69 0.0 0.0 0.00 0.00 0.00 67 1015.2
20260903181331 77 101 0.0 0.0 0.00 0.00 0.00 68 1015.2
20260903180326 77 126 0.0 0.0 0.00 0.00 0.00 67 1015.3
20260903175318 78 111 0.0 0.0 0.00 0.00 0.00 65 1015.2
20260903174314 78 114 0.0 0.0 0.00 0.00 0.00 62 1015.3
20260903173333 78 84 0.0 0.0 0.00 0.00 0.00 62 1015.3
20260903172306 77 122 0.0 0.0 0.00 0.00 0.00 64 1015.3
20260903171237 76 58 0.0 0.0 0.00 0.00 0.00 67 1015.3
20260903170243 76 107 0.0 0.0 0.00 0.00 0.00 69 1015.3
20260903164052 75 64 0.0 0.0 0.00 0.00 0.00 71 1015.4
20260903161930 74 57 0.0 0.0 0.00 0.00 0.00 75 1015.3
20260903155803 71 61 0.0 0.0 0.00 0.00 0.00 77 1015.5
20260903154800 72 60 0.0 0.0 0.00 0.00 0.00 76 1015.5
20260903152605 71 57 0.0 0.0 0.00 0.00 0.00 80 1015.6
20260903151555 70 57 0.0 0.0 0.00 0.00 0.00 83 1015.6
20260903150609 68 57 0.0 0.0 0.00 0.00 0.00 89 1015.6
20260903145613 65 57 0.0 0.0 0.00 0.00 0.00 93 1015.7
20260903143432 61 57 0.0 0.0 0.00 0.00 0.00 93 1015.4
20260903140124 60 55 0.0 0.0 0.00 0.00 0.00 92 1015.1
20260903135056 60 55 0.0 0.0 0.00 0.00 0.00 92 1015.0
20260903134036 60 102 0.0 0.0 0.00 0.00 0.00 92 1014.9
20260903133022 60 102 0.0 0.0 0.00 0.00 0.00 91 1014.9
20260903132000 60 102 0.0 0.0 0.00 0.00 0.00 91 1014.7
20260903131015 60 102 0.0 0.0 0.00 0.00 0.00 91 1014.6
20260903130021 60 102 0.0 0.0 0.00 0.00 0.00 91 1014.7
20260903125042 60 101 0.0 0.0 0.00 0.00 0.00 91 1014.7
20260903124015 60 102 0.0 0.0 0.00 0.00 0.00 91 1014.6
20260903121835 60 102 0.0 0.0 0.00 0.00 0.00 91 1014.5
20260903120835 60 102 0.0 0.0 0.00 0.00 0.00 90 1014.5
20260903115837 60 101 0.0 0.0 0.00 0.00 0.00 90 1014.5
20260903114805 61 102 0.0 0.0 0.00 0.00 0.00 91 1014.5
20260903113821 61 102 0.0 0.0 0.00 0.00 0.00 91 1014.6
20260903112846 61 102 0.0 0.0 0.00 0.00 0.00 91 1014.7
20260903110644 60 101 0.0 0.0 0.00 0.00 0.00 91 1014.5
20260903105652 60 102 0.0 0.0 0.00 0.00 0.00 90 1014.6
20260903103502 61 102 0.0 0.0 0.00 0.00 0.00 90 1014.7
20260903102457 61 102 0.0 0.0 0.00 0.00 0.00 90 1014.8
20260903101505 61 102 0.0 0.0 0.00 0.00 0.00 90 1014.9
20260903100434 61 101 0.0 0.0 0.00 0.00 0.00 90 1015.0
20260903095417 61 102 0.0 0.0 0.00 0.00 0.00 90 1015.2
20260903094353 61 102 0.0 0.0 0.00 0.00 0.00 90 1015.2
20260903093359 61 102 0.0 0.0 0.00 0.00 0.00 89 1015.3
20260903092407 61 102 0.0 0.0 0.00 0.00 0.00 89 1015.4
20260903091416 62 101 0.0 0.0 0.00 0.00 0.00 89 1015.4
20260903090435 62 101 0.0 0.0 0.00 0.00 0.00 89 1015.4
20260903085404 62 101 0.0 0.0 0.00 0.00 0.00 89 1015.5
20260903084341 62 101 0.0 0.0 0.00 0.00 0.00 89 1015.5
20260903083356 62 102 0.0 0.0 0.00 0.00 0.00 88 1015.6
20260903082400 62 101 0.0 0.0 0.00 0.00 0.00 88 1015.7
20260903081348 63 102 0.0 0.0 0.00 0.00 0.00 88 1015.7
20260903080407 63 102 0.0 0.0 0.00 0.00 0.00 89 1015.7
20260903075412 63 102 0.0 0.0 0.00 0.00 0.00 88 1015.7
20260903073256 63 102 0.0 0.0 0.00 0.00 0.00 88 1015.8
20260903070043 64 102 0.0 0.0 0.00 0.00 0.00 87 1015.6
20260903065042 64 102 0.0 0.0 0.00 0.00 0.00 87 1015.7
20260903062942 64 101 0.0 0.0 0.00 0.00 0.00 87 1015.6
20260903061908 64 102 0.0 0.0 0.00 0.00 0.00 86 1015.6
20260903060848 65 102 0.0 0.0 0.00 0.00 0.00 86 1015.7
20260903055857 65 102 0.0 0.0 0.00 0.00 0.00 86 1015.7
20260903053752 65 101 0.0 0.0 0.00 0.00 0.00 85 1015.8
20260903052721 66 102 0.0 0.0 0.00 0.00 0.00 86 1015.9
20260903051648 66 102 0.0 0.0 0.00 0.00 0.00 85 1016.0
20260903050613 66 102 0.0 0.0 0.00 0.00 0.00 84 1015.9
20260903045610 66 102 0.0 0.0 0.00 0.00 0.00 84 1015.9
20260903043428 67 101 0.0 0.0 0.00 0.00 0.00 83 1015.8
20260903042431 67 102 0.0 0.0 0.00 0.00 0.00 83 1015.8
20260903041425 67 102 0.0 0.0 0.00 0.00 0.00 82 1015.7
20260903040414 68 102 0.0 0.0 0.00 0.00 0.00 82 1015.6
20260903035341 68 102 0.0 0.0 0.00 0.00 0.00 81 1015.4
20260903034401 68 102 0.0 0.0 0.00 0.00 0.00 81 1015.3
20260903033338 69 102 0.0 0.0 0.00 0.00 0.00 81 1015.4
20260903030103 70 101 0.0 0.0 0.00 0.00 0.00 79 1015.0
20260903024000 70 101 0.0 0.0 0.00 0.00 0.00 78 1014.9
20260903023006 71 101 0.0 0.0 0.00 0.00 0.00 78 1014.9
20260903022026 71 101 0.0 0.0 0.00 0.00 0.00 77 1015.0
20260903020955 71 101 0.0 0.0 0.00 0.00 0.00 77 1014.9
20260903020002 72 99 0.0 0.0 0.00 0.00 0.00 76 1015.0
20260903014949 72 95 0.0 0.0 0.00 0.00 0.00 74 1014.9
20260903013931 73 112 0.0 2.0 0.00 0.00 0.00 73 1014.9
20260903012920 73 98 0.0 0.0 0.00 0.00 0.00 72 1014.9
20260903010816 74 95 0.0 0.0 0.00 0.00 0.00 69 1014.9
20260903004653 75 94 0.0 0.0 0.00 0.00 0.00 66 1014.9
20260903003625 77 100 0.0 0.0 0.00 0.00 0.00 63 1014.8
20260903001555 78 116 0.0 0.0 0.00 0.00 0.00 64 1014.9
20260903000600 78 115 0.0 0.0 0.00 0.00 0.00 63 1014.9
20260902235548 79 107 0.0 0.0 0.00 0.00 0.00 63 1014.9
20260902233338 79 105 0.0 0.0 0.00 0.00 0.00 63 1015.2
20260902232345 79 130 0.0 6.0 0.00 0.00 0.00 65 1015.1
20260902231321 79 81 0.0 0.0 0.00 0.00 0.00 63 1015.2